Regional Weather Roundup
Issued by NWS

Home | Current Version | Previous Version | Text Only | Print | Product List | Glossary Off
Versions: 1 2 3 4 5 6 7 8 9 10 11 12 13 14 15 16 17 18 19 20 21 22 23 24 25 26 27 28 29 30 31 32 33 34 35 36 37 38 39 40 41 42 43 44 45 46 47 48 49 50

000
ASUS45 KBOU 060207
RWRCO

WEATHER ROUNDUP FOR COLORADO
NATIONAL WEATHER SERVICE DENVER/BOULDER CO
700 PM MST FRI FEB 05 2016

NOTE: "FAIR" INDICATES FEW OR NO CLOUDS BELOW 12000 FEET WITH NO
SIGNIFICANT WEATHER AND/OR OBSTRUCTIONS TO VISIBILITY.

COZ001>005-013-030-031-060300-
...NORTHWEST COLORADO...

CITY           SKY/WX    TMP DP  RH WIND       PRES   REMARKS
CRAIG          CLOUDY     2  -1  88 CALM      30.46S
HAYDEN         CLOUDY    16   9  73 E6        30.44R WCI   7
MEEKER         CLOUDY     9   4  80 NE3       30.46R
MOUNT WERNER   NOT AVBL
STEAMBOAT SPGS CLOUDY    12   9  89 CALM      30.44R
WALDEN         CLOUDY    10   3  72 S10       30.37R WCI  -3
$$

COZ006>008-011-060300-
...WEST CENTRAL VALLEYS...

CITY           SKY/WX    TMP DP  RH WIND       PRES   REMARKS
GRAND JUNCTION CLOUDY    12   9  87 CALM      30.54R
MONTROSE       CLOUDY    15   8  73 SE7       30.53R WCI   5
EAGLE          CLEAR     16  10  79 E8        30.48R WCI   5
RIFLE          CLOUDY    13   6  74 SE3       30.51R
DELTA          CLOUDY    20  15  79 NE6       30.54R WCI  13
NUCLA          CLOUDY    28  16  59 SE3       30.51R
$$

COZ017>023-064>068-060300-
...SOUTHWEST COLORADO...

CITY           SKY/WX    TMP DP  RH WIND       PRES   REMARKS
DURANGO        CLOUDY    13   6  74 E6        30.38R WCI   4
CORTEZ         CLOUDY    26  12  55 N3        30.44R
PAGOSA SPRINGS CLOUDY    11   7  83 CALM      30.39R
TELLURIDE      CLOUDY    15   3  60 E5        30.41S WCI   7
WOLF CREEK PAS CLOUDY     9  -4  56 W9        30.32R WCI  -5
$$

COZ009-010-012-014-032>034-037-058>063-060300-
...CENTRAL COLORADO...

CITY           SKY/WX    TMP DP  RH WIND       PRES   REMARKS
ASPEN          CLOUDY     9   2  73 SW8       30.42R WCI  -3
BUENA VISTA    CLOUDY    21   5  50 NW21G29   30.31R WCI   5
COPPER MTN     CLOUDY     5   0  78 W7        30.27S WCI  -7
BERTHOUD PASS  CLOUDY    -4 -13  65 N17G26    30.22S WCI -26
COTTONWOOD PAS CLOUDY    19  -4  35 W13G24    30.27R WCI   7
GUNNISON       CLOUDY    -2 -15  55 NE5       30.46R WCI -12
KREMMLING      CLOUDY     0  -4  85 CALM      30.46R
LEADVILLE      CLOUDY     5  -1  76 N12       30.31R WCI -11
MONARCH PASS   CLOUDY     3   0  85 MISG      30.34R
SALIDA         NOT AVBL
SUNLIGHT       CLOUDY   N/A N/A N/A NW7         N/A
WILKERSON PASS CLOUDY    10  -6  48 N14G28    30.23S WCI  -5
$$

COZ069>075-060300-
...SAN LUIS VALLEY/SANGRE DE CRISTO MOUNTAINS...

CITY           SKY/WX    TMP DP  RH WIND       PRES   REMARKS
ALAMOSA        CLOUDY     9   3  77 S6        30.33R WCI  -1
LA VETA PASS   CLOUDY    10   3  72 MISG      30.23R
SAGUACHE       CLOUDY    21   5  49 N13       30.35R WCI   9
$$

COZ035-036-038>040-060300-
...NORTHERN COLORADO FRONT RANGE...

CITY           SKY/WX    TMP DP  RH WIND       PRES   REMARKS
DENVER INTL AP CLOUDY    14   5  67 S13       30.28R WCI   0
DMNS CITY PARK   N/A     27  11  49 E6G13     30.27S WCI  21
AURORA         CLEAR     20   8  60 S8        30.28R WCI  10
FRONT RANGE AP PTCLDY    14   7  73 S9        30.28R WCI   2
ERIE MUNI ARPT CLEAR     25  13  60 S5        30.27S WCI  19
BOULDER MUN AP CLEAR     28  12  50 CALM      30.26S
CENTENNIAL     CLOUDY    21   8  57 S9        30.26S WCI  11
BROOMFIELD     CLEAR     30  12  47 CALM      30.27S
FORT COLLINS   CLOUDY    25  10  54 S6        30.29S WCI  18
LONGMONT       CLOUDY    17   9  70 NW3       30.30S
$$

COZ041-046-047-076>085-087-088-060300-
...PIKES PEAK/PALMER DIVIDE AND SOUTHERN FOOTHILLS...

CITY           SKY/WX    TMP DP  RH WIND       PRES   REMARKS
COLO. SPRINGS  CLOUDY    14   4  64 CALM      30.30R
A. F. ACADEMY  CLOUDY    21  10  61 E5        30.27R WCI  15
SCHRIEVER AFB  FAIR      13   5  70 W1        30.29S
ELLICOTT       NOT AVBL
FALCON         CLOUDY    14   4  65 W8        30.27F WCI   3
FORT CARSON    CLOUDY    30  14  51 SE6       30.25S WCI  24
LIMON          CLOUDY    12   5  73 NW6       30.29S WCI   3
MONUMENT HILL  CLOUDY    10   1  67 SW8       30.26F WCI  -1
TRINIDAD       CLEAR     23  14  68 S7        30.31R WCI  15
$$

COZ042>045-048>051-090-091-060300-
...NORTHEAST COLORADO...

CITY           SKY/WX    TMP DP  RH WIND       PRES   REMARKS
GREELEY ARPT   CLOUDY    18   9  68 SW7       30.30S WCI   8
AKRON          CLEAR     21  12  68 N16       30.27S WCI   7
BURLINGTON     CLEAR     24  13  62 NW14      30.28R WCI  12
WRAY           CLEAR     26  18  72 NW12      30.29R WCI  15
STERLING       CLEAR     27  18  69 N14       30.28S WCI  15
HOLYOKE        CLEAR     32  19  59 NW15G21   30.28R WCI  22
FORT MORGAN    CLEAR     23  13  64 N15       30.29R WCI  10
$$

COZ086-089-092>099-060300-
...SOUTHEAST COLORADO...

CITY           SKY/WX    TMP DP  RH WIND       PRES   REMARKS
PUEBLO         CLEAR     26  15  63 CALM      30.32S
LA JUNTA       CLEAR     25  16  68 W6        30.33R WCI  18
LAMAR          CLEAR     26  19  74 W7        30.31S WCI  18
SPRINGFIELD      N/A     21  18  88 W9        30.30F WCI  11
$$



USA.gov is the U.S. government's official web portal to all federal, state and local government web resources and services.